Year,Month,Day,Hour,Minute,Value (Times are PST for temperature in C)
2011,06,06,00,00,14.00
2011,06,06,00,01,14.00
2011,06,06,00,02,14.00
2011,06,06,00,03,14.00
2011,06,06,00,04,14.00
2011,06,06,00,05,14.00
2011,06,06,00,06,13.90
2011,06,06,00,07,13.90
2011,06,06,00,08,13.90
2011,06,06,00,09,13.90
2011,06,06,00,10,13.90
2011,06,06,00,11,13.90
2011,06,06,00,12,13.90
2011,06,06,00,13,13.80
2011,06,06,00,14,13.80
2011,06,06,00,15,13.80
2011,06,06,00,16,13.80
2011,06,06,00,17,13.80
2011,06,06,00,18,13.80
2011,06,06,00,19,13.80
2011,06,06,00,20,13.80
2011,06,06,00,21,13.80
2011,06,06,00,22,13.70
2011,06,06,00,23,13.70
2011,06,06,00,24,13.70
2011,06,06,00,25,13.70
2011,06,06,00,26,13.70
2011,06,06,00,27,13.70
2011,06,06,00,28,13.70
2011,06,06,00,29,13.70
2011,06,06,00,30,13.70
2011,06,06,00,31,13.70
2011,06,06,00,32,13.70
2011,06,06,00,33,13.70
2011,06,06,00,34,13.60
2011,06,06,00,35,13.60
2011,06,06,00,36,13.60
2011,06,06,00,37,13.60
2011,06,06,00,38,13.60
2011,06,06,00,39,13.60
2011,06,06,00,40,13.50
2011,06,06,00,41,13.50
2011,06,06,00,42,13.50
2011,06,06,00,43,13.50
2011,06,06,00,44,13.50
2011,06,06,00,45,13.50
2011,06,06,00,46,13.50
2011,06,06,00,47,13.50
2011,06,06,00,48,13.50
2011,06,06,00,49,13.50
2011,06,06,00,50,13.50
2011,06,06,00,51,13.40
2011,06,06,00,52,13.40
2011,06,06,00,53,13.40
2011,06,06,00,54,13.40
2011,06,06,00,55,13.40
2011,06,06,00,56,13.40
2011,06,06,00,57,13.30
2011,06,06,00,58,13.30
2011,06,06,00,59,13.30
2011,06,06,01,00,13.30
2011,06,06,01,01,13.30
2011,06,06,01,02,13.30
2011,06,06,01,03,13.30
2011,06,06,01,04,13.30
2011,06,06,01,05,13.30
2011,06,06,01,06,13.30
2011,06,06,01,07,13.30
2011,06,06,01,08,13.30
2011,06,06,01,09,13.30
2011,06,06,01,10,13.30
2011,06,06,01,11,13.30
2011,06,06,01,12,13.30
2011,06,06,01,13,13.30
2011,06,06,01,14,13.30
2011,06,06,01,15,13.20
2011,06,06,01,16,13.20
2011,06,06,01,17,13.20
2011,06,06,01,18,13.20
2011,06,06,01,19,13.20
2011,06,06,01,20,13.20
2011,06,06,01,21,13.20
2011,06,06,01,22,13.20
2011,06,06,01,23,13.20
2011,06,06,01,24,13.20
2011,06,06,01,25,13.20
2011,06,06,01,26,13.20
2011,06,06,01,27,13.20
2011,06,06,01,28,13.20
2011,06,06,01,29,13.20
2011,06,06,01,30,13.20
2011,06,06,01,31,13.20
2011,06,06,01,32,13.20
2011,06,06,01,33,13.20
2011,06,06,01,34,13.20
2011,06,06,01,35,13.20
2011,06,06,01,36,13.20
2011,06,06,01,37,13.20
2011,06,06,01,38,13.20
2011,06,06,01,39,13.20
2011,06,06,01,40,13.20
2011,06,06,01,41,13.20
2011,06,06,01,42,13.20
2011,06,06,01,43,13.20
2011,06,06,01,44,13.20
2011,06,06,01,45,13.20
2011,06,06,01,46,13.20
2011,06,06,01,47,13.20
2011,06,06,01,48,13.20
2011,06,06,01,49,13.20
2011,06,06,01,50,13.20
2011,06,06,01,51,13.20
2011,06,06,01,52,13.20
2011,06,06,01,53,13.20
2011,06,06,01,54,13.20
2011,06,06,01,55,13.20
2011,06,06,01,56,13.20
2011,06,06,01,57,13.20
2011,06,06,01,58,13.20
2011,06,06,01,59,13.20
2011,06,06,02,00,13.20
2011,06,06,02,01,13.20
2011,06,06,02,02,13.20
2011,06,06,02,03,13.10
2011,06,06,02,04,13.10
2011,06,06,02,05,13.10
2011,06,06,02,06,13.10
2011,06,06,02,07,13.10
2011,06,06,02,08,13.10
2011,06,06,02,09,13.10
2011,06,06,02,10,13.10
2011,06,06,02,11,13.10
2011,06,06,02,12,13.10
2011,06,06,02,13,13.10
2011,06,06,02,14,13.10
2011,06,06,02,15,13.10
2011,06,06,02,16,13.20
2011,06,06,02,17,13.20
2011,06,06,02,18,13.20
2011,06,06,02,19,13.20
2011,06,06,02,20,13.10
2011,06,06,02,21,13.10
2011,06,06,02,22,13.10
2011,06,06,02,23,13.10
2011,06,06,02,24,13.10
2011,06,06,02,25,13.00
2011,06,06,02,26,13.00
2011,06,06,02,27,12.90
2011,06,06,02,28,12.80
2011,06,06,02,29,12.80
2011,06,06,02,30,12.80
2011,06,06,02,31,12.80
2011,06,06,02,32,12.70
2011,06,06,02,33,12.70
2011,06,06,02,34,12.70
2011,06,06,02,35,12.60
2011,06,06,02,36,12.60
2011,06,06,02,37,12.60
2011,06,06,02,38,12.50
2011,06,06,02,39,12.50
2011,06,06,02,40,12.50
2011,06,06,02,41,12.50
2011,06,06,02,42,12.50
2011,06,06,02,43,12.40
2011,06,06,02,44,12.40
2011,06,06,02,45,12.40
2011,06,06,02,46,12.40
2011,06,06,02,47,12.30
2011,06,06,02,48,12.30
2011,06,06,02,49,12.30
2011,06,06,02,50,12.30
2011,06,06,02,51,12.30
2011,06,06,02,52,12.30
2011,06,06,02,53,12.20
2011,06,06,02,54,12.20
2011,06,06,02,55,12.20
2011,06,06,02,56,12.10
2011,06,06,02,57,12.10
2011,06,06,02,58,12.10
2011,06,06,02,59,12.00
2011,06,06,03,00,12.00
2011,06,06,03,01,12.00
2011,06,06,03,02,12.00
2011,06,06,03,03,11.90
2011,06,06,03,04,11.90
2011,06,06,03,05,11.90
2011,06,06,03,06,11.90
2011,06,06,03,07,11.80
2011,06,06,03,08,11.80
2011,06,06,03,09,11.80
2011,06,06,03,10,11.80
2011,06,06,03,11,11.80
2011,06,06,03,12,11.80
2011,06,06,03,13,11.80
2011,06,06,03,14,11.80
2011,06,06,03,15,11.90
2011,06,06,03,16,11.90
2011,06,06,03,17,11.90
2011,06,06,03,18,11.90
2011,06,06,03,19,11.90
2011,06,06,03,20,11.90
2011,06,06,03,21,11.90
2011,06,06,03,22,11.90
2011,06,06,03,23,11.90
2011,06,06,03,24,11.90
2011,06,06,03,25,11.90
2011,06,06,03,26,11.90
2011,06,06,03,27,11.80
2011,06,06,03,28,11.80
2011,06,06,03,29,11.80
2011,06,06,03,30,11.80
2011,06,06,03,31,11.80
2011,06,06,03,32,11.80
2011,06,06,03,33,11.80
2011,06,06,03,34,11.70
2011,06,06,03,35,11.70
2011,06,06,03,36,11.70
2011,06,06,03,37,11.60
2011,06,06,03,38,11.60
2011,06,06,03,39,11.60
2011,06,06,03,40,11.60
2011,06,06,03,41,11.60
2011,06,06,03,42,11.50
2011,06,06,03,43,11.40
2011,06,06,03,44,11.40
2011,06,06,03,45,11.40
2011,06,06,03,46,11.40
2011,06,06,03,47,11.40
2011,06,06,03,48,11.40
2011,06,06,03,49,11.40
2011,06,06,03,50,11.40
2011,06,06,03,51,11.40
2011,06,06,03,52,11.40
2011,06,06,03,53,11.40
2011,06,06,03,54,11.30
2011,06,06,03,55,11.30
2011,06,06,03,56,11.30
2011,06,06,03,57,11.30
2011,06,06,03,58,11.30
2011,06,06,03,59,11.30
2011,06,06,04,00,11.30
2011,06,06,04,01,11.30
2011,06,06,04,02,11.30
2011,06,06,04,03,11.30
2011,06,06,04,04,11.30
2011,06,06,04,05,11.30
2011,06,06,04,06,11.30
2011,06,06,04,07,11.30
2011,06,06,04,08,11.30
2011,06,06,04,09,11.30
2011,06,06,04,10,11.30
2011,06,06,04,11,11.20
2011,06,06,04,12,11.20
2011,06,06,04,13,11.20
2011,06,06,04,14,11.20
2011,06,06,04,15,11.20
2011,06,06,04,16,11.20
2011,06,06,04,17,11.10
2011,06,06,04,18,11.10
2011,06,06,04,19,11.10
2011,06,06,04,20,11.10
2011,06,06,04,21,11.10
2011,06,06,04,22,11.10
2011,06,06,04,23,10.90
2011,06,06,04,24,10.90
2011,06,06,04,25,10.90
2011,06,06,04,26,10.90
2011,06,06,04,27,10.90
2011,06,06,04,28,10.90
2011,06,06,04,29,10.90
2011,06,06,04,30,10.90
2011,06,06,04,31,10.80
2011,06,06,04,32,10.80
2011,06,06,04,33,10.80
2011,06,06,04,34,10.80
2011,06,06,04,35,10.70
2011,06,06,04,36,10.70
2011,06,06,04,37,10.70
2011,06,06,04,38,10.70
2011,06,06,04,39,10.70
2011,06,06,04,40,10.60
2011,06,06,04,41,10.60
2011,06,06,04,42,10.60
2011,06,06,04,43,10.60
2011,06,06,04,44,10.60
2011,06,06,04,45,10.60
2011,06,06,04,46,10.60
2011,06,06,04,47,10.50
2011,06,06,04,48,10.40
2011,06,06,04,49,10.40
2011,06,06,04,50,10.40
2011,06,06,04,51,10.40
2011,06,06,04,52,10.40
2011,06,06,04,53,10.40
2011,06,06,04,54,10.40
2011,06,06,04,55,10.30
2011,06,06,04,56,10.30
2011,06,06,04,57,10.30
2011,06,06,04,58,10.30
2011,06,06,04,59,10.30
2011,06,06,05,00,10.20
2011,06,06,05,01,10.20
2011,06,06,05,02,10.20
2011,06,06,05,03,10.20
2011,06,06,05,04,10.10
2011,06,06,05,05,10.10
2011,06,06,05,06,10.10
2011,06,06,05,07,10.10
2011,06,06,05,08,10.10
2011,06,06,05,09,10.10
2011,06,06,05,10,10.10
2011,06,06,05,11,10.10
2011,06,06,05,12,10.10
2011,06,06,05,13,10.10
2011,06,06,05,14,10.00
2011,06,06,05,15,9.90
2011,06,06,05,16,9.90
2011,06,06,05,17,9.90
2011,06,06,05,18,9.90
2011,06,06,05,19,9.90
2011,06,06,05,20,9.90
2011,06,06,05,21,9.90
2011,06,06,05,22,9.90
2011,06,06,05,23,9.90
2011,06,06,05,24,9.90
2011,06,06,05,25,9.80
2011,06,06,05,26,9.80
2011,06,06,05,27,9.80
2011,06,06,05,28,9.80
2011,06,06,05,29,9.80
2011,06,06,05,30,9.70
2011,06,06,05,31,9.70
2011,06,06,05,32,9.70
2011,06,06,05,33,9.70
2011,06,06,05,34,9.70
2011,06,06,05,35,9.70
2011,06,06,05,36,9.70
2011,06,06,05,37,9.80
2011,06,06,05,38,9.80
2011,06,06,05,39,9.80
2011,06,06,05,40,9.80
2011,06,06,05,41,9.80
2011,06,06,05,42,9.80
2011,06,06,05,43,9.90
2011,06,06,05,44,9.90
2011,06,06,05,45,9.90
2011,06,06,05,46,9.90
2011,06,06,05,47,9.90
2011,06,06,05,48,9.90
2011,06,06,05,49,9.90
2011,06,06,05,50,9.90
2011,06,06,05,51,10.00
2011,06,06,05,52,10.10
2011,06,06,05,53,10.10
2011,06,06,05,54,10.10
2011,06,06,05,55,10.10
2011,06,06,05,56,10.10
2011,06,06,05,57,10.10
2011,06,06,05,58,10.10
2011,06,06,05,59,10.10
2011,06,06,06,00,10.10
2011,06,06,06,01,10.10
2011,06,06,06,02,10.10
2011,06,06,06,03,10.20
2011,06,06,06,04,10.20
2011,06,06,06,05,10.30
2011,06,06,06,06,10.40
2011,06,06,06,07,10.40
2011,06,06,06,08,10.50
2011,06,06,06,09,10.60
2011,06,06,06,10,10.70
2011,06,06,06,11,10.80
2011,06,06,06,12,10.90
2011,06,06,06,13,10.90
2011,06,06,06,14,11.00
2011,06,06,06,15,11.10
2011,06,06,06,16,11.10
2011,06,06,06,17,11.20
2011,06,06,06,18,11.30
2011,06,06,06,19,11.40
2011,06,06,06,20,11.40
2011,06,06,06,21,11.60
2011,06,06,06,22,11.60
2011,06,06,06,23,11.70
2011,06,06,06,24,11.70
2011,06,06,06,25,11.80
2011,06,06,06,26,11.80
2011,06,06,06,27,11.80
2011,06,06,06,28,11.90
2011,06,06,06,29,11.90
2011,06,06,06,30,12.00
2011,06,06,06,31,12.00
2011,06,06,06,32,12.10
2011,06,06,06,33,12.10
2011,06,06,06,34,12.20
2011,06,06,06,35,12.20
2011,06,06,06,36,12.30
2011,06,06,06,37,12.40
2011,06,06,06,38,12.40
2011,06,06,06,39,12.50
2011,06,06,06,40,12.50
2011,06,06,06,41,12.60
2011,06,06,06,42,12.60
2011,06,06,06,43,12.70
2011,06,06,06,44,12.80
2011,06,06,06,45,12.80
2011,06,06,06,46,12.90
2011,06,06,06,47,13.00
2011,06,06,06,48,13.10
2011,06,06,06,49,13.20
2011,06,06,06,50,13.30
2011,06,06,06,51,13.40
2011,06,06,06,52,13.50
2011,06,06,06,53,13.60
2011,06,06,06,54,13.70
2011,06,06,06,55,13.70
2011,06,06,06,56,13.80
2011,06,06,06,57,13.80
2011,06,06,06,58,13.90
2011,06,06,06,59,13.90
2011,06,06,07,00,14.00
2011,06,06,07,01,14.00
2011,06,06,07,02,14.10
2011,06,06,07,03,14.20
2011,06,06,07,04,14.20
2011,06,06,07,05,14.30
2011,06,06,07,06,14.40
2011,06,06,07,07,14.40
2011,06,06,07,08,14.50
2011,06,06,07,09,14.60
2011,06,06,07,10,14.70
2011,06,06,07,11,14.80
2011,06,06,07,12,14.80
2011,06,06,07,13,14.90
2011,06,06,07,14,15.00
2011,06,06,07,15,15.10
2011,06,06,07,16,15.20
2011,06,06,07,17,15.20
2011,06,06,07,18,15.30
2011,06,06,07,19,15.30
2011,06,06,07,20,15.30
2011,06,06,07,21,15.40
2011,06,06,07,22,15.50
2011,06,06,07,23,15.60
2011,06,06,07,24,15.70
2011,06,06,07,25,15.80
2011,06,06,07,26,15.80
2011,06,06,07,27,15.80
2011,06,06,07,28,15.80
2011,06,06,07,29,15.80
2011,06,06,07,30,15.70
2011,06,06,07,31,15.70
2011,06,06,07,32,15.70
2011,06,06,07,33,15.70
2011,06,06,07,34,15.80
2011,06,06,07,35,15.80
2011,06,06,07,36,15.80
2011,06,06,07,37,15.70
2011,06,06,07,38,15.70
2011,06,06,07,39,15.70
2011,06,06,07,40,15.70
2011,06,06,07,41,15.70
2011,06,06,07,42,15.70
2011,06,06,07,43,15.70
2011,06,06,07,44,15.80
2011,06,06,07,45,15.80
2011,06,06,07,46,15.90
2011,06,06,07,47,15.90
2011,06,06,07,48,16.00
2011,06,06,07,49,16.10
2011,06,06,07,50,16.10
2011,06,06,07,51,16.10
2011,06,06,07,52,16.20
2011,06,06,07,53,16.20
2011,06,06,07,54,16.10
2011,06,06,07,55,16.20
2011,06,06,07,56,16.10
2011,06,06,07,57,16.10
2011,06,06,07,58,16.10
2011,06,06,07,59,16.10
2011,06,06,08,00,16.10
2011,06,06,08,01,16.20
2011,06,06,08,02,16.30
2011,06,06,08,03,16.30
2011,06,06,08,04,16.40
2011,06,06,08,05,16.40
2011,06,06,08,06,16.50
2011,06,06,08,07,16.70
2011,06,06,08,08,16.70
2011,06,06,08,09,16.70
2011,06,06,08,10,16.80
2011,06,06,08,11,16.90
2011,06,06,08,12,16.90
2011,06,06,08,13,17.00
2011,06,06,08,14,17.00
2011,06,06,08,15,17.10
2011,06,06,08,16,17.10
2011,06,06,08,17,17.20
2011,06,06,08,18,17.30
2011,06,06,08,19,17.30
2011,06,06,08,20,17.20
2011,06,06,08,21,17.20
2011,06,06,08,22,17.20
2011,06,06,08,23,17.20
2011,06,06,08,24,17.20
2011,06,06,08,25,17.10
2011,06,06,08,26,17.10
2011,06,06,08,27,17.10
2011,06,06,08,28,17.10
2011,06,06,08,29,17.00
2011,06,06,08,30,17.00
2011,06,06,08,31,16.90
2011,06,06,08,32,16.90
2011,06,06,08,33,16.90
2011,06,06,08,34,16.90
2011,06,06,08,35,16.90
2011,06,06,08,36,17.00
2011,06,06,08,37,17.00
2011,06,06,08,38,17.10
2011,06,06,08,39,17.20
2011,06,06,08,40,17.20
2011,06,06,08,41,17.30
2011,06,06,08,42,17.30
2011,06,06,08,43,17.30
2011,06,06,08,44,17.30
2011,06,06,08,45,17.30
2011,06,06,08,46,17.40
2011,06,06,08,47,17.40
2011,06,06,08,48,17.50
2011,06,06,08,49,17.60
2011,06,06,08,50,17.60
2011,06,06,08,51,17.70
2011,06,06,08,52,17.70
2011,06,06,08,53,17.70
2011,06,06,08,54,17.80
2011,06,06,08,55,17.80
2011,06,06,08,56,17.90
2011,06,06,08,57,17.90
2011,06,06,08,58,17.90
2011,06,06,08,59,17.90
2011,06,06,09,00,17.90
2011,06,06,09,01,17.90
2011,06,06,09,02,17.90
2011,06,06,09,03,17.90
2011,06,06,09,04,17.90
2011,06,06,09,05,17.90
2011,06,06,09,06,17.90
2011,06,06,09,07,17.90
2011,06,06,09,08,17.90
2011,06,06,09,09,17.90
2011,06,06,09,10,17.90
2011,06,06,09,11,17.90
2011,06,06,09,12,17.90
2011,06,06,09,13,17.90
2011,06,06,09,14,18.10
2011,06,06,09,15,18.10
2011,06,06,09,16,18.20
2011,06,06,09,17,18.20
2011,06,06,09,18,18.20
2011,06,06,09,19,18.30
2011,06,06,09,20,18.30
2011,06,06,09,21,18.30
2011,06,06,09,22,18.30
2011,06,06,09,23,18.40
2011,06,06,09,24,18.40
2011,06,06,09,25,18.50
2011,06,06,09,26,18.50
2011,06,06,09,27,18.60
2011,06,06,09,28,18.60
2011,06,06,09,29,18.70
2011,06,06,09,30,18.70
2011,06,06,09,31,18.70
2011,06,06,09,32,18.70
2011,06,06,09,33,18.70
2011,06,06,09,34,18.70
2011,06,06,09,35,18.60
2011,06,06,09,36,18.60
2011,06,06,09,37,18.60
2011,06,06,09,38,18.60
2011,06,06,09,39,18.60
2011,06,06,09,40,18.60
2011,06,06,09,41,18.60
2011,06,06,09,42,18.60
2011,06,06,09,43,18.70
2011,06,06,09,44,18.70
2011,06,06,09,45,18.80
2011,06,06,09,46,18.80
2011,06,06,09,47,18.80
2011,06,06,09,48,18.70
2011,06,06,09,49,18.70
2011,06,06,09,50,18.60
2011,06,06,09,51,18.60
2011,06,06,09,52,18.50
2011,06,06,09,53,18.40
2011,06,06,09,54,18.40
2011,06,06,09,55,18.50
2011,06,06,09,56,18.50
2011,06,06,09,57,18.60
2011,06,06,09,58,18.60
2011,06,06,09,59,18.60
2011,06,06,10,00,18.60
2011,06,06,10,01,18.60
2011,06,06,10,02,18.60
2011,06,06,10,03,18.60
2011,06,06,10,04,18.60
2011,06,06,10,05,18.60
2011,06,06,10,06,18.50
2011,06,06,10,07,18.50
2011,06,06,10,08,18.50
2011,06,06,10,09,18.50
2011,06,06,10,10,18.50
2011,06,06,10,11,18.50
2011,06,06,10,12,18.60
2011,06,06,10,13,18.60
2011,06,06,10,14,18.60
2011,06,06,10,15,18.60
2011,06,06,10,16,18.60
2011,06,06,10,17,18.70
2011,06,06,10,18,18.70
2011,06,06,10,19,18.80
2011,06,06,10,20,18.80
2011,06,06,10,21,18.80
2011,06,06,10,22,18.90
2011,06,06,10,23,19.00
2011,06,06,10,24,19.10
2011,06,06,10,25,19.10
2011,06,06,10,26,19.10
2011,06,06,10,27,19.20
2011,06,06,10,28,19.30
2011,06,06,10,29,19.30
2011,06,06,10,30,19.30
2011,06,06,10,31,19.40
2011,06,06,10,32,19.40
2011,06,06,10,33,19.50
2011,06,06,10,34,19.50
2011,06,06,10,35,19.60
2011,06,06,10,36,19.60
2011,06,06,10,37,19.70
2011,06,06,10,38,19.70
2011,06,06,10,39,19.60
2011,06,06,10,40,19.50
2011,06,06,10,41,19.40
2011,06,06,10,42,19.30
2011,06,06,10,43,19.20
2011,06,06,10,44,19.20
2011,06,06,10,45,19.20
2011,06,06,10,46,19.20
2011,06,06,10,47,19.10
2011,06,06,10,48,19.10
2011,06,06,10,49,19.10
2011,06,06,10,50,19.10
2011,06,06,10,51,19.20
2011,06,06,10,52,19.30
2011,06,06,10,53,19.30
2011,06,06,10,54,19.30
2011,06,06,10,55,19.30
2011,06,06,10,56,19.30
2011,06,06,10,57,19.30
2011,06,06,10,58,19.30
2011,06,06,10,59,19.20
2011,06,06,11,00,19.20
2011,06,06,11,01,19.20
2011,06,06,11,02,19.30
2011,06,06,11,03,19.30
2011,06,06,11,04,19.40
2011,06,06,11,05,19.50
2011,06,06,11,06,19.60
2011,06,06,11,07,19.60
2011,06,06,11,08,19.70
2011,06,06,11,09,19.90
2011,06,06,11,10,19.90
2011,06,06,11,11,19.90
2011,06,06,11,12,19.90
2011,06,06,11,13,19.90
2011,06,06,11,14,19.90
2011,06,06,11,15,19.90
2011,06,06,11,16,19.90
2011,06,06,11,17,19.90
2011,06,06,11,18,19.90
2011,06,06,11,19,19.90
2011,06,06,11,20,19.80
2011,06,06,11,21,19.80
2011,06,06,11,22,19.80
2011,06,06,11,23,19.70
2011,06,06,11,24,19.70
2011,06,06,11,25,19.70
2011,06,06,11,26,19.80
2011,06,06,11,27,19.90
2011,06,06,11,28,19.90
2011,06,06,11,29,19.90
2011,06,06,11,30,19.90
2011,06,06,11,31,19.90
2011,06,06,11,32,19.90
2011,06,06,11,33,20.00
2011,06,06,11,34,20.10
2011,06,06,11,35,20.20
2011,06,06,11,36,20.20
2011,06,06,11,37,20.30
2011,06,06,11,38,20.30
2011,06,06,11,39,20.20
2011,06,06,11,40,20.20
2011,06,06,11,41,20.20
2011,06,06,11,42,20.20
2011,06,06,11,43,20.20
2011,06,06,11,44,20.10
2011,06,06,11,45,20.10
2011,06,06,11,46,20.10
2011,06,06,11,47,20.10
2011,06,06,11,48,20.10
2011,06,06,11,49,20.00
2011,06,06,11,50,19.90
2011,06,06,11,51,19.80
2011,06,06,11,52,19.90
2011,06,06,11,53,19.90
2011,06,06,11,54,19.90
2011,06,06,11,55,19.90
2011,06,06,11,56,19.80
2011,06,06,11,57,19.70
2011,06,06,11,58,19.70
2011,06,06,11,59,19.60
2011,06,06,12,00,19.50
2011,06,06,12,01,19.40
2011,06,06,12,02,19.50
2011,06,06,12,03,19.50
2011,06,06,12,04,19.60
2011,06,06,12,05,19.50
2011,06,06,12,06,19.40
2011,06,06,12,07,19.50
2011,06,06,12,08,19.50
2011,06,06,12,09,19.40
2011,06,06,12,10,19.40
2011,06,06,12,11,19.50
2011,06,06,12,12,19.50
2011,06,06,12,13,19.50
2011,06,06,12,14,19.30
2011,06,06,12,15,19.20
2011,06,06,12,16,19.10
2011,06,06,12,17,19.10
2011,06,06,12,18,19.10
2011,06,06,12,19,19.10
2011,06,06,12,20,19.10
2011,06,06,12,21,19.20
2011,06,06,12,22,19.30
2011,06,06,12,23,19.30
2011,06,06,12,24,19.30
2011,06,06,12,25,19.40
2011,06,06,12,26,19.40
2011,06,06,12,27,19.40
2011,06,06,12,28,19.20
2011,06,06,12,29,19.00
2011,06,06,12,30,19.10
2011,06,06,12,31,19.10
2011,06,06,12,32,19.10
2011,06,06,12,33,19.10
2011,06,06,12,34,19.10
2011,06,06,12,35,19.20
2011,06,06,12,36,19.20
2011,06,06,12,37,19.20
2011,06,06,12,38,19.30
2011,06,06,12,39,19.30
2011,06,06,12,40,19.20
2011,06,06,12,41,19.40
2011,06,06,12,42,19.40
2011,06,06,12,43,19.60
2011,06,06,12,44,19.70
2011,06,06,12,45,19.70
2011,06,06,12,46,19.80
2011,06,06,12,47,19.80
2011,06,06,12,48,19.90
2011,06,06,12,49,19.90
2011,06,06,12,50,19.80
2011,06,06,12,51,19.70
2011,06,06,12,52,19.50
2011,06,06,12,53,19.50
2011,06,06,12,54,19.50
2011,06,06,12,55,19.50
2011,06,06,12,56,19.50
2011,06,06,12,57,19.40
2011,06,06,12,58,19.40
2011,06,06,12,59,19.30
2011,06,06,13,00,19.20
2011,06,06,13,01,19.30
2011,06,06,13,02,19.30
2011,06,06,13,03,19.40
2011,06,06,13,04,19.50
2011,06,06,13,05,19.40
2011,06,06,13,06,19.50
2011,06,06,13,07,19.60
2011,06,06,13,08,19.60
2011,06,06,13,09,19.60
2011,06,06,13,10,19.60
2011,06,06,13,11,19.60
2011,06,06,13,12,19.70
2011,06,06,13,13,19.60
2011,06,06,13,14,19.60
2011,06,06,13,15,19.60
2011,06,06,13,16,19.50
2011,06,06,13,17,19.50
2011,06,06,13,18,19.60
2011,06,06,13,19,19.60
2011,06,06,13,20,19.70
2011,06,06,13,21,19.80
2011,06,06,13,22,19.80
2011,06,06,13,23,19.80
2011,06,06,13,24,19.80
2011,06,06,13,25,19.80
2011,06,06,13,26,19.70
2011,06,06,13,27,19.80
2011,06,06,13,28,19.90
2011,06,06,13,29,20.00
2011,06,06,13,30,20.10
2011,06,06,13,31,20.20
2011,06,06,13,32,20.20
2011,06,06,13,33,20.20
2011,06,06,13,34,20.30
2011,06,06,13,35,20.50
2011,06,06,13,36,20.60
2011,06,06,13,37,20.80
2011,06,06,13,38,20.90
2011,06,06,13,39,20.90
2011,06,06,13,40,20.70
2011,06,06,13,41,20.50
2011,06,06,13,42,20.30
2011,06,06,13,43,20.30
2011,06,06,13,44,20.30
2011,06,06,13,45,20.20
2011,06,06,13,46,20.30
2011,06,06,13,47,20.30
2011,06,06,13,48,20.30
2011,06,06,13,49,20.30
2011,06,06,13,50,20.30
2011,06,06,13,51,20.20
2011,06,06,13,52,20.10
2011,06,06,13,53,20.10
2011,06,06,13,54,20.00
2011,06,06,13,55,19.90
2011,06,06,13,56,20.10
2011,06,06,13,57,20.10
2011,06,06,13,58,20.20
2011,06,06,13,59,20.20
2011,06,06,14,00,20.20
2011,06,06,14,01,20.20
2011,06,06,14,02,20.20
2011,06,06,14,03,20.20
2011,06,06,14,04,20.20
2011,06,06,14,05,20.20
2011,06,06,14,06,20.10
2011,06,06,14,07,20.10
2011,06,06,14,08,20.00
2011,06,06,14,09,19.90
2011,06,06,14,10,19.90
2011,06,06,14,11,19.80
2011,06,06,14,12,19.70
2011,06,06,14,13,19.70
2011,06,06,14,14,19.70
2011,06,06,14,15,19.60
2011,06,06,14,16,19.60
2011,06,06,14,17,19.60
2011,06,06,14,18,19.70
2011,06,06,14,19,19.60
2011,06,06,14,20,19.40
2011,06,06,14,21,19.40
2011,06,06,14,22,19.40
2011,06,06,14,23,19.40
2011,06,06,14,24,19.50
2011,06,06,14,25,19.60
2011,06,06,14,26,19.60
2011,06,06,14,27,19.70
2011,06,06,14,28,19.70
2011,06,06,14,29,19.60
2011,06,06,14,30,19.70
2011,06,06,14,31,19.70
2011,06,06,14,32,19.60
2011,06,06,14,33,19.60
2011,06,06,14,34,19.60
2011,06,06,14,35,19.60
2011,06,06,14,36,19.50
2011,06,06,14,37,19.60
2011,06,06,14,38,19.60
2011,06,06,14,39,19.70
2011,06,06,14,40,19.70
2011,06,06,14,41,19.80
2011,06,06,14,42,19.80
2011,06,06,14,43,19.90
2011,06,06,14,44,19.90
2011,06,06,14,45,19.90
2011,06,06,14,46,19.90
2011,06,06,14,47,19.90
2011,06,06,14,48,19.80
2011,06,06,14,49,19.70
2011,06,06,14,50,19.70
2011,06,06,14,51,19.80
2011,06,06,14,52,19.90
2011,06,06,14,53,19.90
2011,06,06,14,54,19.80
2011,06,06,14,55,19.80
2011,06,06,14,56,19.90
2011,06,06,14,57,19.90
2011,06,06,14,58,19.90
2011,06,06,14,59,20.10
2011,06,06,15,00,20.30
2011,06,06,15,01,20.40
2011,06,06,15,02,20.50
2011,06,06,15,03,20.40
2011,06,06,15,04,20.40
2011,06,06,15,05,20.40
2011,06,06,15,06,20.20
2011,06,06,15,07,20.30
2011,06,06,15,08,20.40
2011,06,06,15,09,20.50
2011,06,06,15,10,20.50
2011,06,06,15,11,20.60
2011,06,06,15,12,20.70
2011,06,06,15,13,20.80
2011,06,06,15,14,20.90
2011,06,06,15,15,20.90
2011,06,06,15,16,21.00
2011,06,06,15,17,20.90
2011,06,06,15,18,21.00
2011,06,06,15,19,21.00
2011,06,06,15,20,21.00
2011,06,06,15,21,21.10
2011,06,06,15,22,21.10
2011,06,06,15,23,21.20
2011,06,06,15,24,21.20
2011,06,06,15,25,21.20
2011,06,06,15,26,21.30
2011,06,06,15,27,21.30
2011,06,06,15,28,21.30
2011,06,06,15,29,21.30
2011,06,06,15,30,21.20
2011,06,06,15,31,21.10
2011,06,06,15,32,21.00
2011,06,06,15,33,20.80
2011,06,06,15,34,20.90
2011,06,06,15,35,20.90
2011,06,06,15,36,21.00
2011,06,06,15,37,20.90
2011,06,06,15,38,20.80
2011,06,06,15,39,20.90
2011,06,06,15,40,20.90
2011,06,06,15,41,20.90
2011,06,06,15,42,20.90
2011,06,06,15,43,21.00
2011,06,06,15,44,20.90
2011,06,06,15,45,20.90
2011,06,06,15,46,20.80
2011,06,06,15,47,20.80
2011,06,06,15,48,20.90
2011,06,06,15,49,21.00
2011,06,06,15,50,21.00
2011,06,06,15,51,21.10
2011,06,06,15,52,21.00
2011,06,06,15,53,21.10
2011,06,06,15,54,21.10
2011,06,06,15,55,21.30
2011,06,06,15,56,21.30
2011,06,06,15,57,21.40
2011,06,06,15,58,21.40
2011,06,06,15,59,21.50
2011,06,06,16,00,21.60
2011,06,06,16,01,21.60
2011,06,06,16,02,21.60
2011,06,06,16,03,21.70
2011,06,06,16,04,21.80
2011,06,06,16,05,21.80
2011,06,06,16,06,21.90
2011,06,06,16,07,22.00
2011,06,06,16,08,22.00
2011,06,06,16,09,22.00
2011,06,06,16,10,22.00
2011,06,06,16,11,22.00
2011,06,06,16,12,22.00
2011,06,06,16,13,22.00
2011,06,06,16,14,22.00
2011,06,06,16,15,22.00
2011,06,06,16,16,22.00
2011,06,06,16,17,22.10
2011,06,06,16,18,22.10
2011,06,06,16,19,22.10
2011,06,06,16,20,22.20
2011,06,06,16,21,22.30
2011,06,06,16,22,22.40
2011,06,06,16,23,22.40
2011,06,06,16,24,22.40
2011,06,06,16,25,22.40
2011,06,06,16,26,22.50
2011,06,06,16,27,22.60
2011,06,06,16,28,22.50
2011,06,06,16,29,22.50
2011,06,06,16,30,22.40
2011,06,06,16,31,22.40
2011,06,06,16,32,22.50
2011,06,06,16,33,22.50
2011,06,06,16,34,22.50
2011,06,06,16,35,22.60
2011,06,06,16,36,22.60
2011,06,06,16,37,22.70
2011,06,06,16,38,22.80
2011,06,06,16,39,22.80
2011,06,06,16,40,22.80
2011,06,06,16,41,22.80
2011,06,06,16,42,22.90
2011,06,06,16,43,23.00
2011,06,06,16,44,23.10
2011,06,06,16,45,23.20
2011,06,06,16,46,23.20
2011,06,06,16,47,23.30
2011,06,06,16,48,23.30
2011,06,06,16,49,23.40
2011,06,06,16,50,23.40
2011,06,06,16,51,23.60
2011,06,06,16,52,23.50
2011,06,06,16,53,23.50
2011,06,06,16,54,23.60
2011,06,06,16,55,23.70
2011,06,06,16,56,23.70
2011,06,06,16,57,23.90
2011,06,06,16,58,24.00
2011,06,06,16,59,24.10
2011,06,06,17,00,24.10
2011,06,06,17,01,24.10
2011,06,06,17,02,24.20
2011,06,06,17,03,24.20
2011,06,06,17,04,24.30
2011,06,06,17,05,24.20
2011,06,06,17,06,24.20
2011,06,06,17,07,24.20
2011,06,06,17,08,24.20
2011,06,06,17,09,24.20
2011,06,06,17,10,24.30
2011,06,06,17,11,24.30
2011,06,06,17,12,24.40
2011,06,06,17,13,24.40
2011,06,06,17,14,24.40
2011,06,06,17,15,24.30
2011,06,06,17,16,24.40
2011,06,06,17,17,24.40
2011,06,06,17,18,24.40
2011,06,06,17,19,24.30
2011,06,06,17,20,24.30
2011,06,06,17,21,24.20